Temp
41 41 42 45 46 45 45 45 46 46 44 42 42 41 41 41 42 43 43 42 43 44 44 44 45 44 43 42 41 41 41 41 42 44 44 43 41 40 40 39 39 39 39 39 39 38 38 38 39 41 43 43 43 42 41 42 41 40 40 40 40 40 39 38 38 38 38 37 39
41 41 42 45 46 45 45 46 46 45 43 41 41 40 40 41 42 43 43 42 43 43 43 43 43 42 40 40 40 40 40 40 40 41 42 41 40 39 39 39 38 38 38 39 38 39 40 39 40 41 43 43 43 42 41 42 41 40 39 38 39 39 39 39 39 38 38 37 38
40 40 40 41 41 42 43 44 43 41 40 40 39 39 40 40 42 43 43 43 41 40 41 42 42 41 40 39 38 38 38 39 39 39 39 39 39 38 38 38 37 38 39 39 38 39 40 39 40 42 44 44 42 41 41 40 40 40 39 38 39 40 41 43 41 40 39 40 38
40 39 39 39 40 40 40 42 41 40 40 40 38 38 39 39 41 41 41 40 39 40 41 41 41 41 40 39 38 37 38 40 40 39 38 38 38 38 37 37 37 37 38 38 38 38 38 38 40 41 42 41 40 40 40 41 40 40 40 40 40 41 42 44 42 42 42 42 40
41 40 39 39 39 38 38 38 38 39 39 39 39 39 40 40 40 40 39 40 42 42 42 39 40 40 40 39 38 37 37 39 41 40 38 38 38 37 37 37 37 37 38 38 38 38 38 37 39 40 40 39 40 40 40 39 39 39 40 41 41 42 43 43 43 43 43 43 41
41 40 39 38 37 37 37 36 37 37 38 38 39 40 41 42 42 41 41 42 42 40 39 39 40 41 41 38 37 36 36 36 37 37 37 37 37 37 37 37 37 37 37 37 37 37 36 36 38 39 39 39 39 39 39 38 38 38 39 41 42 42 41 41 42 42 42 42 40
40 40 40 39 38 38 38 37 37 36 36 37 39 41 42 42 41 40 40 40 40 39 39 42 41 40 39 37 36 36 36 36 35 35 35 36 36 36 37 37 37 36 36 36 36 36 35 35 38 40 42 44 44 42 40 38 38 38 39 40 42 42 41 39 40 41 41 39 38
40 40 40 40 39 39 39 38 38 38 39 41 42 42 41 41 40 40 39 38 39 39 40 41 38 37 36 36 36 36 36 36 36 36 35 36 36 36 37 37 36 36 36 36 35 35 35 35 38 39 40 41 43 43 41 39 38 38 39 40 42 41 41 42 40 40 40 39 38
40 40 40 40 39 39 39 38 38 39 40 41 41 41 41 41 41 40 40 40 41 41 40 39 37 35 35 35 35 36 36 36 36 36 36 36 37 38 38 37 37 36 36 36 36 35 35 36 38 39 40 42 43 43 41 39 38 37 38 39 40 40 40 41 39 39 39 39 39
40 40 40 40 40 39 39 38 38 38 39 40 40 40 41 44 43 41 40 41 41 39 38 37 35 35 35 35 35 35 36 36 37 37 38 38 39 39 38 37 37 37 36 36 36 36 35 36 38 38 39 39 40 40 39 38 37 37 38 40 40 40 39 39 39 39 39 40 40
40 40 40 40 39 39 39 38 39 40 40 40 40 40 41 42 41 40 40 39 38 37 37 36 35 35 35 36 36 36 37 37 37 38 39 39 40 39 37 36 36 36 36 36 36 36 37 37 38 38 38 39 39 39 38 37 36 36 37 39 39 39 39 39 39 40 40 40 40
39 39 39 39 39 38 38 38 39 40 40 40 40 40 40 40 39 39 38 37 37 37 37 36 35 35 36 36 37 38 39 38 38 39 39 38 37 36 36 35 35 35 36 36 36 37 37 37 38 38 38 37 39 40 39 37 37 37 37 37 38 38 39 39 40 40 41 41 41
39 39 39 39 38 38 38 39 39 40 40 40 40 40 41 40 38 38 37 36 36 37 36 36 37 36 36 36 37 37 38 38 38 38 37 36 36 36 35 36 36 36 36 36 36 37 37 37 37 37 37 38 39 40 39 37 37 37 37 38 38 38 39 39 40 41 41 41 42
39 39 39 39 39 39 39 39 40 40 40 40 40 40 39 38 38 37 36 35 35 36 36 36 37 38 38 37 37 37 37 37 36 35 35 35 35 35 36 36 36 36 37 37 37 37 37 37 37 37 37 37 38 38 38 37 37 37 37 38 38 38 39 40 41 41 42 42 43
39 39 39 39 39 39 39 39 41 41 40 40 40 39 38 37 37 37 36 35 35 35 35 35 36 37 38 37 36 36 35 35 35 35 35 36 36 36 36 37 36 37 37 37 37 36 36 36 36 37 37 37 37 37 38 37 37 38 38 38 38 39 40 40 41 42 43 43 43
39 39 39 39 39 39 39 40 41 40 40 40 38 37 36 36 36 36 37 36 35 35 35 35 35 35 36 37 37 36 35 35 35 35 35 36 36 36 36 36 37 37 37 37 37 36 36 36 37 37 36 37 37 37 37 37 37 37 38 38 39 39 40 41 42 42 43 43 43
39 39 39 38 38 38 39 39 40 39 39 38 37 36 36 35 35 36 38 38 36 35 35 35 35 35 35 37 37 37 36 36 36 36 36 36 36 37 37 37 37 37 36 36 36 36 36 36 37 36 36 36 36 37 37 37 37 38 38 38 39 40 40 41 42 42 42 42 41
39 39 38 38 38 38 38 38 38 38 37 37 36 36 35 35 35 35 37 38 37 36 35 35 35 35 35 35 36 37 37 36 36 36 36 36 36 36 36 36 37 36 36 36 36 36 36 36 36 36 36 36 36 37 37 38 38 38 39 39 40 40 40 41 41 41 41 40 40
38 38 38 37 37 37 37 38 37 37 36 36 35 35 35 35 35 35 35 36 37 37 36 35 35 34 35 35 35 36 38 37 36 36 36 36 35 35 35 36 36 36 35 35 35 35 36 36 36 36 36 36 37 37 38 38 39 39 39 40 40 40 40 40 41 41 41 41 41
37 37 37 37 37 37 36 37 36 36 35 35 34 35 35 35 35 35 35 36 37 36 35 34 34 34 35 35 35 35 36 37 36 35 35 35 35 35 35 35 36 35 35 35 35 35 35 35 35 36 36 36 37 37 38 38 39 39 39 40 40 40 40 41 41 41 41 41 41
37 37 37 37 36 36 36 36 35 35 34 34 34 35 35 35 35 35 36 36 36 35 34 34 34 35 35 35 34 34 35 36 36 35 35 35 35 35 36 36 35 35 35 35 35 35 35 35 36 36 37 37 38 38 38 39 39 39 39 40 41 41 41 41 41 41 41 41 41
37 37 36 36 35 35 35 35 34 33 33 34 35 35 35 35 35 36 36 36 36 35 35 35 35 35 35 34 34 34 35 36 35 35 35 35 36 36 36 36 35 34 34 34 35 35 35 36 37 37 37 38 38 39 39 39 40 40 40 41 41 41 42 42 42 42 42 42 42
36 36 35 35 35 35 36 35 34 34 34 35 35 35 35 36 36 35 35 35 36 35 35 35 35 35 35 34 34 34 34 34 35 35 35 34 35 35 35 34 33 33 34 35 36 36 37 38 39 39 40 41 41 41 41 41 42 42 42 42 42 42 42 42 43 43 43 44 44
35 34 34 35 34 33 33 33 34 34 35 36 36 36 36 36 36 35 35 35 35 35 35 35 35 35 35 34 34 34 34 34 35 35 35 35 34 34 33 34 33 34 35 37 39 41 42 42 42 43 44 45 44 44 43 43 43 43 43 43 43 43 43 43 44 45 45 44 44
34 33 34 34 33 33 33 34 34 35 35 36 36 36 36 36 36 36 35 35 35 35 35 35 35 35 35 36 35 35 34 34 34 34 34 34 34 33 33 34 35 37 38 41 44 46 47 47 47 46 46 45 44 44 44 43 43 43 44 44 43 43 43 43 44 44 45 45 45
33 33 33 33 33 33 34 34 35 35 35 36 35 36 36 36 36 36 35 35 36 35 35 35 35 36 38 37 36 35 35 35 34 33 33 34 33 33 34 36 37 38 40 43 46 48 49 49 49 49 47 45 44 44 44 44 44 44 44 44 43 43 43 43 44 44 45 45 45
33 33 33 33 33 33 34 35 35 35 35 36 36 36 36 36 36 35 35 35 35 35 35 35 35 38 40 38 36 35 35 35 34 33 32 32 33 33 34 36 38 39 41 45 47 48 49 50 50 50 49 46 45 44 44 44 44 44 44 43 43 43 43 43 44 44 44 44 44
33 33 33 33 33 34 35 35 35 36 36 36 36 36 35 35 35 35 35 35 35 35 36 36 37 38 38 37 35 35 34 34 33 33 33 33 33 34 35 37 38 40 43 46 48 48 49 50 50 51 50 49 46 45 44 44 44 44 43 43 43 44 44 44 44 44 44 44 44
33 33 33 33 34 35 35 35 36 36 36 36 35 35 35 35 35 35 35 35 35 35 36 37 39 38 37 36 35 34 33 32 33 33 34 34 35 35 36 37 38 40 44 47 48 48 49 50 50 51 51 51 47 45 44 44 44 44 44 44 44 44 44 44 44 44 44 44 44
33 33 33 33 34 35 36 36 36 36 35 36 35 35 35 35 35 35 35 35 35 35 36 37 37 36 35 35 34 33 33 33 34 34 34 34 35 36 37 39 38 40 43 46 47 48 49 50 51 51 51 51 49 46 44 44 44 44 44 44 44 44 44 44 44 44 44 44 44
33 33 33 33 34 35 35 35 35 35 35 35 34 34 34 35 35 34 34 34 35 37 38 36 34 33 33 33 32 32 33 34 35 35 35 35 37 37 38 37 37 39 43 46 47 49 49 50 51 51 51 52 49 46 45 44 44 44 44 44 44 44 44 44 44 44 43 43 43
32 33 33 34 34 35 35 35 35 35 34 34 34 34 34 34 34 34 34 34 35 35 35 34 33 33 33 32 32 33 33 34 35 36 37 37 37 36 36 37 37 39 43 46 48 49 50 50 51 51 51 52 49 47 45 44 44 44 44 44 44 44 44 43 43 43 43 43 43
33 33 33 33 34 34 35 35 35 34 34 33 33 34 34 34 34 34 34 35 35 34 33 33 33 33 33 33 33 33 34 35 36 37 38 38 37 36 36 37 38 40 44 47 48 49 50 50 51 51 52 52 49 46 45 44 44 44 44 44 44 44 43 43 43 43 43 43 43
33 33 33 33 34 34 34 34 34 34 33 33 33 34 34 33 33 34 34 36 35 35 34 34 33 33 32 33 33 34 35 37 37 37 36 36 36 36 36 37 38 42 45 47 48 49 50 50 51 51 52 52 48 46 44 43 43 43 44 43 43 43 43 43 43 43 43 43 43
32 32 33 33 34 34 34 34 34 33 33 33 34 34 34 33 32 33 34 37 37 35 34 33 33 32 32 33 33 34 35 36 36 36 36 36 36 36 36 37 38 41 45 47 48 49 50 50 51 51 51 50 47 45 44 43 43 43 43 43 43 43 43 43 43 43 43 43 43
32 32 32 33 33 33 34 33 33 33 33 33 33 34 33 33 32 32 34 38 37 35 33 33 32 32 32 33 34 35 36 35 35 35 36 36 36 36 36 36 38 41 45 47 48 49 50 50 50 51 50 48 45 44 44 43 43 43 43 43 43 42 42 42 42 42 43 43 42
32 32 32 33 33 33 33 33 33 33 33 33 33 33 33 32 32 33 34 36 34 33 33 33 33 33 33 33 34 35 35 35 35 35 36 37 37 36 36 37 37 40 44 47 48 49 49 50 50 50 49 46 44 43 43 43 43 43 43 43 42 42 42 42 42 42 42 42 43
32 32 32 32 33 33 33 33 32 32 32 33 32 32 32 32 32 33 35 37 34 33 32 33 32 33 33 34 35 35 35 35 36 36 36 36 36 37 37 37 38 40 43 46 48 48 49 49 50 50 49 45 44 43 43 43 43 43 42 42 42 41 41 41 41 42 42 42 45
32 32 32 32 32 33 32 32 32 32 32 32 32 32 32 31 32 34 36 37 33 32 31 32 32 33 34 35 36 36 35 35 36 36 36 36 37 39 40 39 39 41 43 46 47 48 48 49 50 50 49 46 44 43 43 42 42 42 42 41 41 41 40 41 41 41 42 42 46
32 32 32 32 32 32 32 32 32 32 32 32 32 32 32 33 34 36 36 35 32 31 31 32 32 33 35 37 36 35 35 35 35 36 37 37 39 41 43 42 40 40 42 45 46 47 48 49 50 50 49 47 44 43 42 42 42 41 41 41 40 40 40 40 41 41 42 42 44
32 32 32 32 32 32 32 32 32 32 32 31 31 32 34 35 35 34 34 33 31 31 32 33 33 33 34 36 35 35 34 34 35 36 37 39 40 42 43 41 40 40 40 43 45 47 48 49 50 50 50 47 45 43 42 42 41 41 40 40 40 40 40 40 41 41 42 42 42
MSLP
1020.95 1020.91 1020.83 1020.75 1020.67 1020.67 1020.59 1020.51 1020.39 1020.35 1020.35 1020.35 1020.31 1020.27 1020.23 1020.19 1020.11 1020.03 1019.95 1019.83 1019.79 1019.67 1019.51 1019.39 1019.23 1019.11 1018.99 1018.95 1018.91 1018.87 1018.83 1018.83 1018.79 1018.79 1018.79 1018.79 1018.79 1018.79 1018.79 1018.79 1018.83 1018.87 1018.95 1018.95 1018.95 1018.99 1018.99 1018.99 1019.03 1019.03 1018.99 1018.95 1018.95 1018.95 1018.91 1018.83 1018.87 1018.87 1018.87 1018.87 1018.87 1018.87 1018.87 1018.91 1018.87 1018.83 1018.83 1018.79 1018.71
1020.99 1020.95 1020.83 1020.71 1020.67 1020.59 1020.55 1020.43 1020.35 1020.31 1020.27 1020.23 1020.23 1020.23 1020.19 1020.15 1020.11 1019.99 1019.91 1019.83 1019.71 1019.63 1019.51 1019.39 1019.23 1019.11 1019.03 1018.91 1018.83 1018.83 1018.83 1018.83 1018.79 1018.79 1018.79 1018.79 1018.75 1018.75 1018.75 1018.79 1018.79 1018.83 1018.87 1018.87 1018.87 1018.87 1018.87 1018.87 1018.91 1018.91 1018.87 1018.79 1018.83 1018.83 1018.75 1018.67 1018.71 1018.75 1018.75 1018.79 1018.75 1018.71 1018.71 1018.71 1018.67 1018.63 1018.59 1018.55 1018.51
1021.07 1021.03 1020.95 1020.87 1020.79 1020.71 1020.67 1020.59 1020.51 1020.43 1020.35 1020.23 1020.19 1020.15 1020.11 1020.07 1020.07 1019.95 1019.87 1019.75 1019.63 1019.63 1019.51 1019.39 1019.23 1019.07 1019.03 1018.91 1018.83 1018.79 1018.79 1018.79 1018.79 1018.79 1018.79 1018.79 1018.79 1018.79 1018.79 1018.79 1018.83 1018.83 1018.79 1018.79 1018.79 1018.75 1018.75 1018.79 1018.79 1018.79 1018.79 1018.75 1018.75 1018.71 1018.67 1018.59 1018.63 1018.67 1018.67 1018.63 1018.59 1018.55 1018.51 1018.47 1018.39 1018.35 1018.35 1018.31 1018.27
1021.11 1021.07 1021.07 1021.03 1020.99 1020.95 1020.83 1020.71 1020.63 1020.51 1020.39 1020.31 1020.19 1020.15 1020.07 1020.07 1019.99 1019.91 1019.79 1019.71 1019.63 1019.55 1019.51 1019.35 1019.27 1019.15 1019.07 1018.99 1018.91 1018.83 1018.79 1018.79 1018.79 1018.83 1018.87 1018.83 1018.83 1018.83 1018.87 1018.91 1018.83 1018.79 1018.71 1018.67 1018.67 1018.67 1018.67 1018.71 1018.75 1018.71 1018.67 1018.67 1018.67 1018.67 1018.59 1018.51 1018.51 1018.51 1018.47 1018.39 1018.35 1018.35 1018.31 1018.23 1018.15 1018.11 1018.07 1017.99 1017.99
1021.11 1021.11 1021.11 1021.11 1021.07 1020.99 1020.91 1020.83 1020.75 1020.63 1020.47 1020.35 1020.27 1020.19 1020.07 1020.03 1019.95 1019.87 1019.79 1019.71 1019.59 1019.47 1019.35 1019.35 1019.31 1019.23 1019.15 1019.15 1019.07 1018.99 1018.95 1018.91 1018.87 1018.91 1018.99 1018.95 1018.95 1018.91 1018.83 1018.83 1018.79 1018.67 1018.63 1018.63 1018.63 1018.63 1018.67 1018.67 1018.67 1018.67 1018.63 1018.63 1018.55 1018.51 1018.39 1018.39 1018.39 1018.35 1018.31 1018.23 1018.15 1018.11 1018.07 1017.99 1017.95 1017.91 1017.83 1017.79 1017.71
1021.23 1021.11 1021.07 1021.07 1020.99 1020.95 1020.91 1020.87 1020.79 1020.67 1020.51 1020.43 1020.35 1020.23 1020.07 1019.99 1019.91 1019.87 1019.79 1019.71 1019.55 1019.43 1019.35 1019.35 1019.27 1019.23 1019.19 1019.23 1019.23 1019.15 1019.07 1019.07 1019.03 1019.03 1019.07 1019.03 1018.95 1018.87 1018.79 1018.75 1018.67 1018.63 1018.59 1018.59 1018.59 1018.59 1018.63 1018.67 1018.63 1018.59 1018.51 1018.51 1018.47 1018.35 1018.23 1018.27 1018.27 1018.23 1018.19 1018.11 1017.99 1017.91 1017.87 1017.83 1017.75 1017.71 1017.63 1017.59 1017.51
1021.31 1021.19 1021.07 1021.03 1020.95 1020.95 1020.87 1020.79 1020.71 1020.67 1020.51 1020.43 1020.35 1020.23 1020.11 1020.03 1019.95 1019.87 1019.79 1019.71 1019.59 1019.51 1019.35 1019.27 1019.23 1019.23 1019.23 1019.23 1019.23 1019.23 1019.19 1019.15 1019.07 1019.07 1019.03 1019.03 1018.95 1018.83 1018.75 1018.67 1018.63 1018.59 1018.59 1018.59 1018.59 1018.59 1018.59 1018.63 1018.55 1018.51 1018.35 1018.27 1018.23 1018.11 1018.07 1018.07 1018.07 1018.07 1018.07 1017.95 1017.79 1017.71 1017.67 1017.59 1017.51 1017.51 1017.47 1017.39 1017.35
1021.27 1021.19 1021.07 1021.03 1020.95 1020.91 1020.83 1020.79 1020.67 1020.63 1020.51 1020.39 1020.31 1020.23 1020.11 1020.03 1019.95 1019.87 1019.79 1019.67 1019.59 1019.51 1019.35 1019.31 1019.31 1019.35 1019.35 1019.31 1019.23 1019.23 1019.19 1019.15 1019.11 1019.07 1018.99 1018.95 1018.87 1018.79 1018.75 1018.71 1018.63 1018.59 1018.55 1018.55 1018.55 1018.55 1018.55 1018.51 1018.51 1018.39 1018.31 1018.23 1018.11 1017.95 1017.91 1017.91 1017.95 1017.95 1017.87 1017.79 1017.63 1017.51 1017.47 1017.39 1017.35 1017.31 1017.27 1017.23 1017.19
1021.27 1021.19 1021.07 1020.99 1020.95 1020.91 1020.83 1020.71 1020.67 1020.63 1020.51 1020.39 1020.31 1020.23 1020.11 1020.07 1019.95 1019.91 1019.79 1019.71 1019.55 1019.43 1019.35 1019.35 1019.39 1019.39 1019.35 1019.35 1019.31 1019.27 1019.23 1019.23 1019.15 1019.07 1018.95 1018.91 1018.83 1018.79 1018.71 1018.67 1018.63 1018.59 1018.51 1018.51 1018.51 1018.51 1018.47 1018.43 1018.35 1018.23 1018.15 1018.07 1017.95 1017.83 1017.75 1017.75 1017.79 1017.79 1017.71 1017.63 1017.47 1017.35 1017.23 1017.23 1017.15 1017.11 1017.07 1017.07 1016.99
1021.39 1021.27 1021.15 1021.07 1020.95 1020.87 1020.79 1020.71 1020.67 1020.59 1020.51 1020.47 1020.31 1020.23 1020.11 1020.03 1019.95 1019.95 1019.87 1019.75 1019.59 1019.51 1019.47 1019.51 1019.47 1019.43 1019.43 1019.39 1019.35 1019.35 1019.27 1019.23 1019.11 1019.07 1018.95 1018.83 1018.79 1018.71 1018.67 1018.67 1018.63 1018.55 1018.51 1018.43 1018.35 1018.35 1018.35 1018.31 1018.23 1018.07 1017.99 1017.95 1017.87 1017.75 1017.63 1017.63 1017.63 1017.63 1017.51 1017.35 1017.27 1017.15 1017.07 1016.99 1016.95 1016.95 1016.87 1016.79 1016.71
1021.47 1021.35 1021.23 1021.15 1021.03 1020.95 1020.83 1020.79 1020.67 1020.59 1020.51 1020.47 1020.35 1020.27 1020.19 1020.07 1020.03 1019.95 1019.87 1019.79 1019.63 1019.63 1019.59 1019.55 1019.51 1019.51 1019.47 1019.43 1019.35 1019.31 1019.23 1019.15 1019.07 1018.99 1018.91 1018.83 1018.75 1018.71 1018.67 1018.67 1018.63 1018.51 1018.43 1018.35 1018.27 1018.23 1018.23 1018.15 1018.07 1017.95 1017.83 1017.75 1017.67 1017.63 1017.55 1017.51 1017.51 1017.43 1017.31 1017.15 1017.07 1016.99 1016.91 1016.79 1016.71 1016.67 1016.63 1016.51 1016.43
1021.51 1021.35 1021.27 1021.19 1021.07 1021.03 1020.95 1020.87 1020.79 1020.67 1020.63 1020.51 1020.47 1020.35 1020.23 1020.15 1020.07 1019.99 1019.87 1019.79 1019.79 1019.71 1019.63 1019.63 1019.59 1019.55 1019.51 1019.43 1019.35 1019.23 1019.15 1019.07 1019.03 1018.95 1018.91 1018.83 1018.75 1018.71 1018.67 1018.63 1018.55 1018.47 1018.35 1018.27 1018.19 1018.15 1018.07 1017.99 1017.95 1017.83 1017.71 1017.63 1017.51 1017.43 1017.35 1017.31 1017.27 1017.23 1017.11 1016.95 1016.91 1016.79 1016.67 1016.55 1016.47 1016.39 1016.35 1016.23 1016.15
1021.51 1021.43 1021.31 1021.19 1021.11 1021.07 1021.03 1020.95 1020.87 1020.79 1020.67 1020.63 1020.51 1020.43 1020.31 1020.23 1020.11 1020.07 1019.99 1019.91 1019.87 1019.79 1019.63 1019.63 1019.55 1019.51 1019.51 1019.39 1019.27 1019.23 1019.15 1019.03 1018.99 1018.95 1018.91 1018.79 1018.75 1018.67 1018.59 1018.51 1018.43 1018.35 1018.23 1018.11 1018.07 1017.99 1017.95 1017.83 1017.79 1017.75 1017.63 1017.47 1017.35 1017.23 1017.15 1017.11 1017.07 1017.03 1016.95 1016.79 1016.67 1016.55 1016.47 1016.31 1016.23 1016.11 1016.03 1015.95 1015.79
1021.55 1021.47 1021.35 1021.27 1021.19 1021.11 1021.07 1021.03 1020.95 1020.83 1020.79 1020.71 1020.63 1020.51 1020.39 1020.23 1020.15 1020.07 1020.03 1019.95 1019.95 1019.83 1019.75 1019.63 1019.55 1019.47 1019.43 1019.35 1019.23 1019.19 1019.11 1019.03 1018.99 1018.95 1018.87 1018.79 1018.71 1018.63 1018.51 1018.39 1018.27 1018.19 1018.07 1017.99 1017.91 1017.83 1017.79 1017.75 1017.63 1017.59 1017.51 1017.35 1017.23 1017.07 1016.99 1016.95 1016.87 1016.79 1016.71 1016.59 1016.47 1016.31 1016.15 1016.07 1015.95 1015.79 1015.75 1015.63 1015.47
1021.59 1021.51 1021.39 1021.31 1021.23 1021.19 1021.11 1021.07 1020.99 1020.95 1020.87 1020.79 1020.67 1020.55 1020.43 1020.35 1020.23 1020.11 1020.07 1019.99 1019.95 1019.83 1019.79 1019.67 1019.55 1019.43 1019.35 1019.31 1019.23 1019.15 1019.11 1019.07 1018.99 1018.91 1018.79 1018.71 1018.63 1018.51 1018.39 1018.27 1018.19 1018.07 1017.95 1017.83 1017.79 1017.71 1017.63 1017.59 1017.51 1017.39 1017.31 1017.19 1017.07 1016.91 1016.79 1016.75 1016.67 1016.55 1016.47 1016.35 1016.23 1016.07 1015.91 1015.75 1015.63 1015.51 1015.43 1015.31 1015.19
1021.63 1021.55 1021.47 1021.35 1021.31 1021.27 1021.23 1021.19 1021.07 1020.99 1020.95 1020.83 1020.71 1020.59 1020.51 1020.35 1020.23 1020.15 1020.07 1019.95 1019.91 1019.83 1019.75 1019.67 1019.55 1019.43 1019.31 1019.23 1019.15 1019.07 1019.07 1018.99 1018.95 1018.83 1018.75 1018.63 1018.51 1018.39 1018.27 1018.19 1018.07 1017.95 1017.83 1017.75 1017.63 1017.55 1017.51 1017.39 1017.31 1017.23 1017.11 1016.99 1016.87 1016.71 1016.59 1016.51 1016.39 1016.31 1016.19 1016.07 1015.95 1015.79 1015.63 1015.51 1015.35 1015.27 1015.19 1015.07 1014.95
1021.71 1021.63 1021.55 1021.51 1021.43 1021.35 1021.27 1021.23 1021.15 1021.07 1020.95 1020.87 1020.75 1020.63 1020.51 1020.35 1020.27 1020.15 1020.03 1019.95 1019.91 1019.83 1019.75 1019.63 1019.51 1019.43 1019.31 1019.19 1019.07 1019.07 1018.99 1018.87 1018.79 1018.75 1018.67 1018.51 1018.39 1018.31 1018.19 1018.07 1017.95 1017.83 1017.75 1017.63 1017.55 1017.43 1017.31 1017.23 1017.07 1017.03 1016.95 1016.79 1016.67 1016.51 1016.39 1016.27 1016.15 1016.03 1015.91 1015.79 1015.63 1015.51 1015.35 1015.23 1015.11 1015.03 1014.95 1014.87 1014.79
1021.87 1021.79 1021.63 1021.55 1021.51 1021.47 1021.35 1021.31 1021.23 1021.11 1021.03 1020.91 1020.79 1020.67 1020.51 1020.39 1020.27 1020.19 1020.07 1019.95 1019.87 1019.79 1019.71 1019.59 1019.51 1019.39 1019.27 1019.15 1019.07 1018.95 1018.91 1018.79 1018.71 1018.63 1018.51 1018.39 1018.27 1018.19 1018.07 1017.95 1017.79 1017.67 1017.63 1017.51 1017.43 1017.27 1017.15 1017.03 1016.91 1016.79 1016.71 1016.59 1016.47 1016.31 1016.15 1016.07 1015.91 1015.75 1015.59 1015.51 1015.35 1015.23 1015.07 1014.99 1014.91 1014.79 1014.71 1014.63 1014.51
1021.99 1021.87 1021.75 1021.67 1021.63 1021.55 1021.47 1021.35 1021.23 1021.15 1021.03 1020.91 1020.79 1020.67 1020.51 1020.35 1020.27 1020.19 1020.07 1019.91 1019.79 1019.71 1019.63 1019.55 1019.43 1019.31 1019.23 1019.11 1019.03 1018.87 1018.75 1018.67 1018.59 1018.47 1018.35 1018.23 1018.11 1018.03 1017.95 1017.79 1017.63 1017.55 1017.47 1017.35 1017.23 1017.07 1016.95 1016.79 1016.67 1016.63 1016.51 1016.35 1016.23 1016.07 1015.91 1015.79 1015.59 1015.43 1015.31 1015.19 1015.03 1014.91 1014.79 1014.71 1014.59 1014.51 1014.39 1014.31 1014.23
1022.07 1021.95 1021.87 1021.79 1021.63 1021.55 1021.51 1021.35 1021.27 1021.15 1020.99 1020.87 1020.79 1020.63 1020.51 1020.35 1020.23 1020.11 1020.03 1019.87 1019.71 1019.63 1019.59 1019.51 1019.43 1019.27 1019.15 1019.03 1018.95 1018.79 1018.67 1018.55 1018.43 1018.35 1018.23 1018.07 1017.99 1017.91 1017.75 1017.63 1017.51 1017.35 1017.31 1017.23 1017.07 1016.95 1016.79 1016.67 1016.51 1016.39 1016.23 1016.07 1015.95 1015.79 1015.63 1015.47 1015.31 1015.15 1015.03 1014.87 1014.75 1014.59 1014.51 1014.35 1014.27 1014.15 1014.07 1013.99 1013.95
1022.11 1022.03 1021.95 1021.83 1021.71 1021.59 1021.51 1021.35 1021.23 1021.11 1020.99 1020.87 1020.75 1020.63 1020.43 1020.27 1020.19 1020.07 1019.95 1019.79 1019.67 1019.63 1019.55 1019.47 1019.35 1019.23 1019.07 1018.95 1018.83 1018.67 1018.51 1018.43 1018.31 1018.23 1018.07 1017.95 1017.87 1017.75 1017.59 1017.47 1017.35 1017.23 1017.11 1017.03 1016.87 1016.75 1016.59 1016.47 1016.31 1016.15 1015.95 1015.83 1015.63 1015.51 1015.35 1015.19 1014.99 1014.83 1014.71 1014.55 1014.39 1014.27 1014.11 1014.03 1013.91 1013.83 1013.75 1013.63 1013.59
1022.11 1021.99 1021.91 1021.79 1021.71 1021.63 1021.51 1021.35 1021.23 1021.11 1020.95 1020.79 1020.67 1020.51 1020.39 1020.23 1020.11 1019.99 1019.87 1019.79 1019.67 1019.59 1019.47 1019.39 1019.23 1019.11 1018.99 1018.87 1018.71 1018.55 1018.39 1018.23 1018.15 1018.07 1017.95 1017.83 1017.71 1017.55 1017.39 1017.31 1017.23 1017.15 1017.03 1016.91 1016.71 1016.55 1016.39 1016.23 1016.07 1015.87 1015.67 1015.51 1015.35 1015.15 1014.99 1014.83 1014.67 1014.51 1014.35 1014.19 1014.07 1013.91 1013.79 1013.63 1013.55 1013.51 1013.39 1013.27 1013.23
1022.11 1021.99 1021.87 1021.79 1021.67 1021.55 1021.43 1021.31 1021.19 1021.07 1020.91 1020.75 1020.63 1020.47 1020.35 1020.23 1020.07 1019.95 1019.83 1019.71 1019.63 1019.51 1019.35 1019.27 1019.15 1018.99 1018.83 1018.71 1018.59 1018.47 1018.31 1018.15 1018.03 1017.91 1017.79 1017.67 1017.55 1017.43 1017.31 1017.23 1017.15 1017.07 1016.91 1016.71 1016.51 1016.35 1016.15 1015.91 1015.67 1015.51 1015.27 1015.11 1014.95 1014.71 1014.55 1014.43 1014.27 1014.15 1013.99 1013.83 1013.63 1013.51 1013.43 1013.35 1013.27 1013.19 1013.07 1012.95 1012.79
1022.07 1021.99 1021.87 1021.75 1021.63 1021.51 1021.39 1021.27 1021.15 1021.03 1020.83 1020.71 1020.55 1020.43 1020.35 1020.19 1020.03 1019.87 1019.79 1019.67 1019.55 1019.43 1019.31 1019.19 1019.03 1018.87 1018.75 1018.59 1018.47 1018.35 1018.23 1018.07 1017.95 1017.79 1017.63 1017.51 1017.43 1017.35 1017.23 1017.15 1017.03 1016.87 1016.71 1016.51 1016.27 1016.03 1015.79 1015.51 1015.23 1015.03 1014.83 1014.67 1014.51 1014.31 1014.15 1014.03 1013.95 1013.79 1013.63 1013.51 1013.31 1013.19 1013.07 1012.99 1012.91 1012.79 1012.67 1012.51 1012.39
1022.07 1021.95 1021.87 1021.75 1021.63 1021.51 1021.35 1021.23 1021.11 1020.99 1020.83 1020.67 1020.51 1020.35 1020.27 1020.11 1019.95 1019.83 1019.75 1019.63 1019.51 1019.35 1019.23 1019.07 1018.95 1018.79 1018.63 1018.47 1018.31 1018.19 1018.07 1017.95 1017.87 1017.75 1017.59 1017.39 1017.27 1017.19 1017.07 1016.95 1016.83 1016.67 1016.47 1016.23 1015.91 1015.59 1015.31 1015.07 1014.83 1014.63 1014.47 1014.27 1014.15 1014.03 1013.91 1013.75 1013.63 1013.51 1013.35 1013.19 1013.03 1012.87 1012.75 1012.59 1012.43 1012.35 1012.23 1012.15 1012.07
1022.07 1021.95 1021.79 1021.71 1021.59 1021.47 1021.35 1021.23 1021.07 1020.95 1020.79 1020.63 1020.51 1020.35 1020.23 1020.07 1019.95 1019.83 1019.67 1019.59 1019.43 1019.27 1019.11 1018.99 1018.83 1018.67 1018.47 1018.31 1018.19 1018.03 1017.95 1017.83 1017.71 1017.63 1017.51 1017.35 1017.23 1017.07 1016.95 1016.79 1016.59 1016.39 1016.23 1015.95 1015.63 1015.35 1015.03 1014.79 1014.51 1014.31 1014.11 1013.99 1013.87 1013.71 1013.55 1013.39 1013.31 1013.19 1013.03 1012.87 1012.71 1012.59 1012.43 1012.27 1012.11 1012.03 1011.95 1011.83 1011.75
1022.03 1021.91 1021.75 1021.63 1021.55 1021.43 1021.31 1021.19 1021.03 1020.91 1020.75 1020.59 1020.47 1020.35 1020.19 1020.07 1019.95 1019.79 1019.67 1019.55 1019.39 1019.23 1019.07 1018.91 1018.75 1018.51 1018.35 1018.23 1018.11 1017.99 1017.87 1017.75 1017.63 1017.51 1017.43 1017.27 1017.11 1016.95 1016.79 1016.55 1016.35 1016.19 1015.95 1015.63 1015.35 1015.07 1014.79 1014.51 1014.23 1013.99 1013.79 1013.67 1013.51 1013.35 1013.23 1013.11 1012.99 1012.87 1012.71 1012.59 1012.47 1012.35 1012.23 1012.07 1011.91 1011.79 1011.63 1011.55 1011.39
1021.99 1021.87 1021.71 1021.63 1021.51 1021.39 1021.23 1021.07 1020.95 1020.83 1020.71 1020.55 1020.43 1020.31 1020.19 1020.03 1019.91 1019.79 1019.63 1019.47 1019.31 1019.11 1018.95 1018.79 1018.59 1018.39 1018.27 1018.19 1018.07 1017.95 1017.79 1017.63 1017.51 1017.39 1017.23 1017.11 1016.95 1016.79 1016.59 1016.35 1016.15 1015.95 1015.67 1015.39 1015.07 1014.83 1014.59 1014.31 1013.95 1013.67 1013.47 1013.27 1013.19 1013.07 1012.99 1012.83 1012.67 1012.55 1012.47 1012.35 1012.23 1012.07 1011.95 1011.83 1011.71 1011.59 1011.43 1011.27 1011.11
1021.95 1021.79 1021.71 1021.63 1021.51 1021.35 1021.19 1021.07 1020.95 1020.79 1020.67 1020.55 1020.39 1020.27 1020.11 1019.99 1019.87 1019.71 1019.55 1019.39 1019.23 1019.07 1018.95 1018.71 1018.51 1018.31 1018.23 1018.11 1017.95 1017.83 1017.67 1017.59 1017.39 1017.27 1017.11 1016.95 1016.75 1016.55 1016.35 1016.15 1015.95 1015.71 1015.47 1015.19 1014.91 1014.63 1014.35 1014.07 1013.75 1013.47 1013.19 1012.95 1012.87 1012.79 1012.75 1012.63 1012.47 1012.35 1012.27 1012.15 1012.03 1011.91 1011.79 1011.63 1011.51 1011.39 1011.23 1011.07 1010.95
1021.91 1021.79 1021.67 1021.59 1021.47 1021.31 1021.15 1021.07 1020.91 1020.79 1020.67 1020.51 1020.35 1020.23 1020.07 1019.95 1019.79 1019.63 1019.51 1019.35 1019.23 1019.07 1018.83 1018.67 1018.47 1018.35 1018.23 1018.07 1017.95 1017.79 1017.63 1017.43 1017.23 1017.11 1016.95 1016.75 1016.55 1016.35 1016.11 1015.91 1015.75 1015.51 1015.27 1014.99 1014.71 1014.39 1014.11 1013.79 1013.51 1013.23 1012.91 1012.67 1012.59 1012.55 1012.51 1012.35 1012.31 1012.19 1012.07 1011.95 1011.83 1011.75 1011.63 1011.51 1011.39 1011.27 1011.15 1011.03 1010.83
1021.79 1021.75 1021.63 1021.55 1021.43 1021.31 1021.19 1020.99 1020.87 1020.75 1020.59 1020.47 1020.31 1020.19 1020.07 1019.95 1019.79 1019.63 1019.47 1019.35 1019.15 1018.91 1018.67 1018.55 1018.47 1018.35 1018.19 1017.99 1017.87 1017.71 1017.51 1017.31 1017.11 1016.95 1016.75 1016.55 1016.35 1016.11 1015.91 1015.71 1015.55 1015.35 1015.07 1014.79 1014.51 1014.23 1013.91 1013.55 1013.23 1012.95 1012.67 1012.39 1012.35 1012.31 1012.31 1012.23 1012.11 1011.95 1011.83 1011.71 1011.63 1011.55 1011.47 1011.35 1011.27 1011.19 1011.07 1010.87 1010.71
1021.79 1021.67 1021.59 1021.51 1021.39 1021.27 1021.07 1020.91 1020.79 1020.67 1020.51 1020.43 1020.27 1020.15 1020.03 1019.87 1019.75 1019.59 1019.43 1019.23 1019.07 1018.83 1018.67 1018.51 1018.35 1018.23 1018.07 1017.87 1017.75 1017.55 1017.35 1017.15 1016.95 1016.75 1016.55 1016.35 1016.19 1015.99 1015.79 1015.59 1015.39 1015.19 1014.91 1014.55 1014.27 1013.99 1013.63 1013.31 1013.03 1012.71 1012.43 1012.23 1012.19 1012.19 1012.15 1012.07 1011.91 1011.79 1011.67 1011.55 1011.47 1011.39 1011.31 1011.23 1011.11 1011.03 1010.87 1010.67 1010.51
1021.71 1021.63 1021.55 1021.47 1021.35 1021.19 1021.03 1020.83 1020.75 1020.63 1020.51 1020.35 1020.23 1020.07 1019.95 1019.79 1019.63 1019.47 1019.27 1019.11 1018.95 1018.79 1018.67 1018.47 1018.31 1018.19 1018.03 1017.83 1017.63 1017.43 1017.23 1016.99 1016.79 1016.55 1016.35 1016.23 1016.07 1015.91 1015.67 1015.43 1015.23 1014.95 1014.67 1014.35 1014.07 1013.75 1013.43 1013.11 1012.83 1012.55 1012.27 1012.03 1011.99 1011.99 1011.95 1011.83 1011.71 1011.59 1011.51 1011.43 1011.31 1011.23 1011.15 1011.07 1010.95 1010.79 1010.63 1010.51 1010.35
1021.67 1021.59 1021.51 1021.39 1021.27 1021.11 1020.99 1020.79 1020.71 1020.55 1020.43 1020.31 1020.19 1020.03 1019.91 1019.75 1019.59 1019.39 1019.19 1018.99 1018.83 1018.67 1018.51 1018.39 1018.27 1018.15 1017.95 1017.79 1017.63 1017.35 1017.11 1016.83 1016.63 1016.43 1016.27 1016.11 1015.95 1015.75 1015.51 1015.31 1015.03 1014.79 1014.47 1014.19 1013.87 1013.51 1013.23 1012.95 1012.67 1012.39 1012.15 1011.95 1011.87 1011.87 1011.79 1011.71 1011.59 1011.47 1011.35 1011.27 1011.15 1011.03 1010.91 1010.79 1010.71 1010.55 1010.39 1010.27 1010.15
1021.63 1021.59 1021.47 1021.35 1021.23 1021.07 1020.95 1020.79 1020.67 1020.51 1020.39 1020.27 1020.11 1019.95 1019.79 1019.67 1019.55 1019.39 1019.19 1018.91 1018.71 1018.55 1018.43 1018.31 1018.19 1018.07 1017.87 1017.67 1017.51 1017.27 1017.03 1016.75 1016.51 1016.35 1016.19 1016.03 1015.83 1015.63 1015.35 1015.07 1014.83 1014.55 1014.27 1013.99 1013.67 1013.35 1013.07 1012.79 1012.51 1012.23 1012.07 1011.91 1011.87 1011.79 1011.71 1011.59 1011.47 1011.35 1011.23 1011.07 1010.91 1010.79 1010.67 1010.55 1010.47 1010.35 1010.23 1010.07 1009.99
1021.63 1021.55 1021.47 1021.27 1021.15 1020.99 1020.87 1020.71 1020.63 1020.47 1020.35 1020.23 1020.07 1019.91 1019.75 1019.59 1019.43 1019.31 1019.07 1018.79 1018.63 1018.51 1018.35 1018.23 1018.07 1017.95 1017.75 1017.55 1017.35 1017.11 1016.91 1016.71 1016.51 1016.23 1016.07 1015.83 1015.63 1015.47 1015.23 1014.95 1014.67 1014.35 1014.07 1013.79 1013.47 1013.19 1012.95 1012.67 1012.43 1012.15 1011.95 1011.83 1011.79 1011.79 1011.63 1011.51 1011.31 1011.11 1010.95 1010.83 1010.71 1010.59 1010.51 1010.35 1010.27 1010.19 1010.07 1009.91 1009.79
1021.55 1021.51 1021.39 1021.23 1021.11 1020.95 1020.79 1020.67 1020.59 1020.43 1020.31 1020.15 1019.99 1019.83 1019.67 1019.51 1019.35 1019.19 1018.95 1018.75 1018.63 1018.47 1018.27 1018.11 1017.99 1017.83 1017.63 1017.47 1017.23 1016.95 1016.75 1016.55 1016.39 1016.19 1015.95 1015.71 1015.51 1015.31 1015.07 1014.79 1014.47 1014.19 1013.91 1013.59 1013.35 1013.07 1012.79 1012.59 1012.31 1012.03 1011.79 1011.79 1011.75 1011.67 1011.55 1011.35 1011.15 1010.95 1010.79 1010.67 1010.55 1010.43 1010.35 1010.27 1010.15 1010.03 1009.91 1009.75 1009.59
1021.51 1021.43 1021.35 1021.23 1021.07 1020.91 1020.75 1020.63 1020.51 1020.39 1020.23 1020.07 1019.95 1019.79 1019.63 1019.51 1019.31 1019.07 1018.87 1018.67 1018.59 1018.47 1018.27 1018.07 1017.95 1017.75 1017.59 1017.35 1017.11 1016.83 1016.59 1016.43 1016.23 1016.07 1015.83 1015.63 1015.39 1015.19 1014.95 1014.59 1014.27 1013.99 1013.75 1013.47 1013.23 1012.99 1012.75 1012.51 1012.19 1011.87 1011.67 1011.67 1011.63 1011.55 1011.39 1011.23 1011.03 1010.83 1010.67 1010.51 1010.35 1010.31 1010.27 1010.23 1010.07 1009.91 1009.71 1009.51 1009.31
1021.43 1021.35 1021.23 1021.11 1020.99 1020.87 1020.71 1020.59 1020.47 1020.35 1020.19 1020.03 1019.83 1019.67 1019.51 1019.35 1019.19 1018.99 1018.83 1018.67 1018.59 1018.51 1018.35 1018.11 1017.91 1017.67 1017.47 1017.23 1016.99 1016.71 1016.47 1016.23 1016.07 1015.95 1015.71 1015.51 1015.23 1014.95 1014.67 1014.35 1014.07 1013.83 1013.63 1013.35 1013.11 1012.91 1012.67 1012.35 1012.03 1011.71 1011.51 1011.43 1011.43 1011.35 1011.23 1011.03 1010.87 1010.67 1010.51 1010.35 1010.31 1010.23 1010.19 1010.11 1009.95 1009.75 1009.51 1009.35 1009.07
1021.35 1021.27 1021.15 1021.07 1020.95 1020.79 1020.67 1020.51 1020.39 1020.23 1020.07 1019.95 1019.79 1019.63 1019.51 1019.31 1019.07 1018.91 1018.75 1018.67 1018.55 1018.43 1018.31 1018.07 1017.83 1017.59 1017.35 1017.15 1016.95 1016.67 1016.39 1016.07 1015.91 1015.71 1015.51 1015.31 1015.03 1014.71 1014.39 1014.19 1013.95 1013.79 1013.51 1013.31 1013.07 1012.83 1012.55 1012.23 1011.87 1011.55 1011.35 1011.23 1011.15 1011.11 1011.07 1010.91 1010.75 1010.55 1010.39 1010.27 1010.23 1010.15 1010.07 1009.95 1009.79 1009.55 1009.35 1009.11 1008.91
1021.27 1021.19 1021.07 1020.95 1020.83 1020.71 1020.59 1020.47 1020.27 1020.11 1019.99 1019.87 1019.75 1019.59 1019.39 1019.19 1019.03 1018.87 1018.71 1018.59 1018.51 1018.35 1018.19 1017.95 1017.71 1017.51 1017.27 1017.07 1016.87 1016.63 1016.35 1016.03 1015.75 1015.51 1015.31 1015.07 1014.79 1014.51 1014.27 1014.07 1013.87 1013.67 1013.47 1013.23 1012.99 1012.71 1012.35 1012.07 1011.75 1011.43 1011.23 1011.07 1010.95 1010.95 1010.91 1010.79 1010.63 1010.43 1010.31 1010.19 1010.15 1010.07 1009.91 1009.71 1009.51 1009.31 1009.11 1008.95 1008.75
Wind_Speed
2 1 1 1 1 1 1 1 1 1 1 1 2 2 2 2 3 3 3 3 3 3 3 3 3 2 2 2 2 2 2 2 2 2 3 3 4 4 4 3 3 3 3 4 3 3 3 3 2 2 2 2 3 3 3 3 3 3 3 3 4 4 4 5 6 6 7 7 6
3 3 3 2 2 2 2 2 2 2 1 1 1 1 2 2 2 3 4 3 3 3 3 3 3 3 3 3 2 2 2 3 3 3 3 4 4 4 3 3 3 3 3 4 3 3 3 2 2 2 2 2 3 3 3 3 3 3 3 4 4 3 4 4 6 6 7 6 6
4 4 4 3 3 3 2 2 3 3 3 2 2 1 1 2 2 3 3 4 3 3 3 4 4 3 3 3 3 2 3 3 3 3 3 3 3 3 3 3 3 3 4 3 3 3 3 2 2 2 3 3 3 3 3 3 2 3 3 4 4 3 4 5 5 5 5 5 5
4 4 4 4 4 3 3 2 3 3 3 3 2 2 2 2 2 2 3 3 3 4 4 4 4 4 3 3 3 3 2 2 2 2 3 3 3 3 3 3 3 3 3 3 2 2 2 2 2 2 3 3 3 4 4 3 3 3 3 4 4 4 4 5 5 5 5 5 5
6 4 3 3 3 3 3 3 3 3 3 3 2 2 2 2 2 2 2 3 4 4 4 4 4 4 4 3 3 3 3 2 2 2 2 3 4 3 3 3 3 3 3 2 2 2 2 2 2 2 3 3 3 4 4 4 4 4 4 4 4 4 4 5 5 5 5 5 5
6 5 4 3 3 3 3 3 3 3 3 2 3 3 4 3 3 3 3 4 5 5 5 4 4 4 4 4 4 4 3 2 2 2 2 4 4 3 3 3 3 3 3 3 3 3 2 2 2 3 3 3 4 4 5 5 4 4 4 4 4 4 4 5 5 5 5 6 6
5 5 5 4 4 3 3 3 3 3 3 3 4 5 6 6 5 5 5 5 5 5 4 4 4 4 3 3 3 3 3 3 2 2 2 3 3 3 3 3 3 3 3 3 3 3 2 2 3 3 4 4 4 4 5 4 5 5 5 5 5 5 4 5 4 4 5 7 8
4 4 4 4 4 4 4 4 3 3 3 4 5 6 7 7 7 7 7 6 5 4 4 3 3 2 2 2 3 3 3 3 3 3 2 2 3 3 3 3 4 4 4 3 3 3 3 2 3 3 4 4 4 4 5 5 5 5 6 7 6 5 5 5 5 5 6 8 9
5 5 5 5 5 4 4 4 4 4 4 5 6 7 7 7 7 7 6 6 5 5 4 3 2 2 2 3 3 3 3 3 3 3 3 3 3 4 4 4 4 4 4 3 3 4 4 3 3 4 4 4 4 5 6 6 6 7 7 7 6 6 6 6 5 6 6 8 9
6 6 6 6 6 6 5 5 4 4 4 6 7 7 7 7 7 6 6 5 5 5 4 3 3 3 3 3 3 3 3 3 3 3 4 4 4 4 4 4 4 5 5 4 4 4 4 3 4 5 5 4 5 6 7 6 7 7 7 6 6 7 7 6 6 7 7 8 9
6 6 5 5 6 6 6 5 5 5 5 6 7 7 7 7 7 6 5 5 5 5 5 3 3 3 3 4 4 3 3 3 3 3 4 4 5 5 5 5 5 5 6 6 4 3 3 4 5 6 6 5 6 6 7 7 7 8 8 6 7 8 8 8 8 7 7 8 10
6 6 5 5 6 5 5 5 5 6 6 6 7 7 7 6 6 5 5 5 5 5 5 3 3 3 3 4 4 4 4 3 3 4 4 5 5 5 5 5 5 6 6 6 4 4 4 4 5 6 7 7 6 6 6 7 7 8 8 8 8 8 9 10 9 8 8 8 10
5 6 6 6 6 6 6 6 5 6 6 7 7 6 6 6 5 5 5 5 5 5 4 4 3 3 3 4 4 4 4 4 4 4 4 4 5 5 5 5 6 6 6 6 5 4 4 5 6 7 8 8 7 7 7 7 7 8 9 9 9 9 10 10 10 9 9 9 10
5 6 6 7 6 6 6 6 5 5 6 6 6 6 5 5 5 5 4 4 5 4 4 4 3 3 3 3 4 4 4 3 4 4 4 5 5 5 6 6 6 6 6 6 5 5 5 6 7 8 8 9 9 8 8 8 8 8 9 9 10 10 11 11 10 10 10 11 12
6 7 7 7 7 6 6 6 5 5 5 6 5 5 5 5 5 5 4 4 4 4 4 4 4 4 3 3 3 3 3 3 3 4 5 6 6 6 6 6 7 7 6 6 6 6 6 7 8 8 8 9 9 9 9 8 8 8 9 9 10 11 11 11 11 11 11 11 12
7 7 7 7 7 6 6 5 4 4 5 5 5 5 5 5 4 4 4 4 4 3 3 4 4 4 4 3 3 3 3 3 4 4 5 6 6 7 7 7 7 7 7 7 7 7 7 7 7 8 8 9 9 9 9 9 9 9 10 10 10 11 11 12 11 11 11 12 12
7 7 7 7 7 6 6 5 4 4 4 5 5 5 5 5 4 4 4 4 4 4 4 5 4 4 4 4 3 3 3 4 4 5 6 6 7 7 7 7 8 8 7 7 8 8 8 8 8 8 8 9 9 9 9 9 9 10 10 11 11 11 12 12 12 12 11 12 12
7 7 7 7 6 6 6 5 5 5 5 5 5 5 5 4 4 4 4 4 4 4 5 5 5 4 4 4 4 3 3 4 5 6 6 7 7 7 7 8 8 8 7 7 8 8 9 9 8 8 8 8 9 9 9 10 10 11 11 11 11 12 12 12 12 11 11 11 12
6 6 6 6 6 6 5 5 5 5 5 5 5 5 5 5 5 5 5 4 4 4 5 6 5 5 4 5 5 4 4 4 5 6 7 7 7 7 7 8 8 8 7 7 8 8 9 9 9 9 9 9 9 10 10 10 11 11 11 12 12 12 12 12 12 12 12 12 13
6 6 5 5 5 5 5 4 4 4 4 5 5 5 6 5 5 5 6 6 5 5 5 5 6 5 5 5 5 5 5 4 5 6 7 7 7 7 7 8 8 8 8 7 8 8 8 9 9 9 9 10 10 11 11 11 11 12 12 11 11 12 12 12 12 12 12 12 13
5 4 4 4 4 4 4 4 4 4 5 5 5 6 6 6 5 6 6 6 6 5 5 5 6 6 6 6 7 6 6 4 5 6 7 7 7 7 7 7 7 7 7 7 8 8 9 9 9 10 10 10 11 11 11 11 11 12 12 11 11 12 12 12 12 12 13 13 13
4 4 4 4 4 4 4 4 4 5 5 5 5 6 6 6 6 6 6 6 5 5 5 6 6 7 7 7 7 7 6 5 5 6 6 6 7 7 7 7 7 7 8 8 8 9 9 10 10 10 11 11 11 11 12 12 12 12 12 12 12 13 13 13 12 12 13 13 14
4 4 4 4 4 4 5 5 5 5 5 6 6 6 6 7 7 7 6 6 5 6 6 6 6 7 7 7 7 7 6 6 6 7 6 6 6 7 7 6 7 7 8 8 8 9 9 10 10 10 11 11 11 11 11 11 11 11 12 13 13 13 13 12 12 12 13 14 14
4 5 4 4 4 5 5 5 5 6 6 7 7 7 7 7 7 7 7 7 7 7 7 6 6 7 7 7 7 7 6 6 7 8 7 7 7 7 7 6 6 7 7 7 9 10 11 10 9 10 10 10 11 11 11 11 11 12 12 13 13 13 12 12 12 13 13 13 13
5 5 5 5 5 5 5 6 6 7 7 7 7 7 7 7 7 7 7 7 8 8 8 8 7 7 7 7 7 7 6 6 7 8 8 8 8 7 7 7 7 7 7 8 13 17 18 16 14 11 10 9 9 10 10 10 11 11 12 12 12 12 12 12 12 12 13 13 13
5 5 5 5 6 6 6 7 7 7 7 7 7 7 7 7 7 7 7 8 8 8 8 8 7 7 7 6 7 7 7 6 7 7 8 8 9 8 7 7 7 7 8 11 16 20 21 21 20 17 13 9 9 9 9 9 10 11 11 12 11 11 11 12 12 12 12 11 12
5 5 6 6 6 6 7 7 7 7 7 7 7 8 7 7 7 7 7 8 8 8 7 7 6 7 7 6 7 7 7 7 7 7 8 8 9 9 9 8 7 7 9 14 19 21 22 22 23 21 18 13 10 9 8 8 9 10 11 10 10 11 11 12 12 12 12 11 11
5 5 6 6 7 7 7 7 7 7 8 8 8 7 7 7 7 8 8 8 8 8 7 6 6 6 5 5 6 7 8 8 7 7 7 8 9 9 9 9 8 9 12 18 21 22 23 23 23 23 21 18 12 9 9 9 9 9 9 8 9 10 10 10 10 10 11 11 11
5 5 6 6 7 7 7 7 8 8 8 8 8 8 8 7 8 8 8 8 8 7 7 6 6 5 5 6 7 8 8 7 7 7 7 8 9 9 9 9 9 11 15 20 22 23 23 23 23 23 23 22 14 10 7 7 7 7 7 7 7 7 8 8 8 9 9 10 9
5 5 6 6 7 7 7 7 8 8 7 7 7 7 8 8 8 8 8 9 8 7 7 6 6 6 7 7 7 7 7 7 8 7 8 9 10 10 10 10 10 11 15 20 22 22 22 23 23 23 24 23 17 12 8 7 7 7 7 7 7 7 8 8 9 9 10 9 10
5 5 6 6 7 7 7 8 7 7 7 7 7 8 8 8 8 8 7 7 7 8 8 7 7 7 8 7 6 7 7 8 8 8 9 9 11 11 11 11 11 12 15 20 22 22 22 23 23 24 24 24 18 12 8 7 7 7 6 6 7 7 8 8 9 10 11 12 12
5 5 6 6 7 7 7 8 7 7 7 7 8 8 8 8 7 7 7 7 7 7 7 6 7 7 8 8 7 8 8 9 10 10 10 10 10 10 11 11 11 13 15 20 21 22 23 23 23 24 24 24 18 12 9 8 7 7 7 8 8 8 8 8 9 10 12 13 12
5 6 6 6 7 7 7 7 7 7 7 7 8 8 8 8 7 7 7 7 7 6 6 6 7 7 8 9 8 9 10 11 11 11 11 11 11 11 11 11 11 13 16 20 22 22 23 23 23 24 24 24 17 12 8 7 7 7 7 8 8 8 9 9 10 10 11 11 10
6 6 6 7 7 7 7 7 7 7 7 8 8 8 8 7 8 8 7 7 6 6 5 6 6 7 7 7 8 10 11 11 11 11 11 11 11 11 11 11 10 12 17 21 22 23 23 23 23 24 24 23 16 11 8 8 8 8 8 9 9 9 9 9 10 10 10 10 9
6 6 7 7 7 7 7 7 7 7 7 8 8 8 8 7 7 7 8 9 8 7 6 6 6 6 7 8 8 9 10 12 12 11 11 11 11 11 12 12 11 14 19 22 22 22 22 23 23 24 23 20 12 9 8 9 9 9 9 10 9 9 9 9 9 9 9 9 9
6 6 7 7 7 7 7 8 8 8 8 8 8 8 8 7 6 6 7 8 8 7 7 7 7 7 7 8 8 9 10 11 11 11 11 11 11 11 12 12 13 15 19 21 22 22 22 23 23 23 21 16 10 7 8 8 8 8 9 9 8 9 9 9 8 8 8 8 8
6 6 6 7 7 7 7 7 7 8 8 8 8 8 8 8 7 6 7 7 7 7 8 8 8 9 9 9 9 10 10 11 11 11 12 12 12 11 12 12 13 14 17 20 21 22 22 23 23 23 19 12 8 7 7 7 7 7 8 8 8 9 8 8 8 8 9 9 9
6 6 6 7 7 7 7 7 7 8 8 8 7 7 6 6 6 6 7 8 7 7 8 8 9 9 9 10 11 11 11 11 11 11 12 12 11 11 12 12 12 13 15 19 21 22 22 22 23 22 19 12 8 7 6 6 7 7 8 8 8 8 7 7 7 7 8 10 12
6 6 6 6 7 7 7 8 8 8 8 8 7 7 7 6 6 6 7 7 6 6 7 8 9 10 10 11 12 12 12 12 12 11 11 11 11 12 13 13 12 12 14 18 21 22 22 22 23 23 20 14 9 7 6 6 7 8 8 8 7 7 7 7 7 7 8 10 14
6 6 6 6 7 7 7 8 8 7 7 7 7 7 7 6 6 7 8 7 6 6 7 8 9 10 11 12 12 12 12 13 12 11 11 12 13 14 15 14 12 13 14 18 20 22 22 22 22 23 20 14 9 6 6 6 7 7 8 7 6 6 6 7 7 7 7 9 11
5 5 6 6 6 7 7 8 8 7 7 6 6 6 6 7 7 7 7 7 6 7 7 8 9 10 11 12 11 11 11 13 12 12 12 13 13 14 14 13 12 12 13 16 19 21 22 22 22 23 21 15 10 7 6 6 6 7 7 7 6 6 6 6 7 7 7 8 8
Wind_Direction
341 336 325 313 315 315 312 309 301 293 283 281 296 297 299 307 305 302 298 294 283 278 277 277 277 281 281 266 239 230 228 227 222 222 223 224 230 234 235 235 232 231 234 238 236 233 228 219 221 229 239 240 247 249 248 242 245 248 249 249 253 254 254 252 254 254 252 250 248
342 335 328 326 328 328 328 328 324 321 311 283 276 274 278 291 299 301 300 294 283 279 279 282 277 272 265 256 239 231 230 234 233 233 234 236 239 241 243 245 240 235 234 236 237 237 234 228 231 244 255 256 258 261 258 249 244 249 254 253 252 253 254 252 252 250 249 249 247
339 335 334 336 337 338 336 330 323 319 313 301 286 275 272 276 288 294 294 290 286 284 282 281 277 272 264 260 249 237 231 233 237 244 251 255 260 260 258 252 246 241 238 236 239 242 245 244 250 260 267 270 268 267 266 261 249 249 252 251 250 250 253 257 253 250 248 250 244
343 340 337 333 328 323 316 308 306 305 304 301 295 286 278 270 275 281 287 291 293 290 285 281 284 283 281 276 271 262 254 251 256 265 273 280 280 274 263 250 249 248 248 246 250 255 258 257 260 264 266 267 266 264 263 263 255 251 250 249 250 251 254 261 259 256 256 257 248
339 336 330 317 307 298 291 287 291 294 295 299 304 304 300 289 285 287 294 301 296 292 289 290 290 293 295 298 296 296 299 303 297 292 287 284 278 271 262 252 255 262 270 275 274 273 271 268 265 261 258 256 256 254 254 254 254 254 256 258 257 256 257 262 261 260 260 261 255
332 329 325 315 303 294 287 281 281 283 287 294 313 320 320 316 314 311 306 300 295 294 295 296 293 294 298 307 311 313 315 318 310 290 274 270 270 271 275 277 280 286 293 294 289 284 277 269 270 265 256 251 253 252 250 246 249 254 259 264 261 260 259 259 259 260 260 261 259
325 325 325 321 315 308 302 294 289 289 292 302 321 323 322 320 319 314 308 301 302 302 302 300 299 300 304 309 308 306 304 302 292 273 262 264 275 284 293 299 302 302 298 294 291 284 272 256 265 269 269 267 269 265 258 249 250 255 261 265 265 263 260 259 258 259 259 259 258
326 328 327 324 322 318 316 313 313 314 317 322 324 322 320 319 319 318 317 317 315 310 307 308 308 307 303 300 295 293 294 296 294 287 279 279 293 300 304 305 306 302 294 287 282 276 268 255 259 266 271 275 277 276 271 264 261 262 265 268 270 268 264 263 262 259 258 258 258
332 331 330 329 328 326 323 319 319 321 322 321 319 318 319 321 324 326 327 324 317 314 314 319 318 314 308 300 295 294 294 296 298 299 300 302 307 308 308 308 305 300 293 284 274 268 264 261 263 265 267 270 274 275 275 273 271 269 268 269 271 270 266 263 262 259 258 258 258
330 329 329 330 328 326 324 322 319 319 319 317 317 319 323 329 332 332 328 320 318 321 327 330 331 328 322 313 306 300 295 293 298 303 307 309 309 307 304 301 298 294 290 283 275 268 265 265 268 269 269 268 270 272 274 272 270 269 268 269 271 271 270 267 264 261 260 259 259
324 324 324 325 323 324 326 327 324 323 323 322 323 326 331 335 337 334 329 326 330 332 332 333 337 332 323 315 307 302 299 297 302 307 309 308 305 300 295 290 285 283 281 279 276 273 271 271 272 272 272 270 270 271 272 269 266 266 267 269 271 273 273 272 268 265 262 260 259
321 321 321 322 323 326 330 331 328 328 329 330 331 333 336 338 337 335 335 341 341 337 332 333 334 326 317 310 306 306 307 307 308 308 307 303 298 293 288 283 279 277 277 276 276 275 275 274 274 275 276 275 274 273 272 270 268 268 270 272 272 272 272 272 269 266 263 259 259
321 324 326 328 330 333 335 335 333 333 334 335 337 338 338 338 338 341 344 347 341 335 328 326 324 316 308 303 303 305 307 308 307 304 299 294 290 288 285 282 280 280 280 280 279 277 277 275 273 275 276 277 276 275 273 272 271 271 272 274 273 272 270 269 268 265 263 260 259
327 330 333 334 336 339 340 341 339 338 338 338 338 338 337 336 338 343 346 344 334 326 320 318 315 309 302 297 297 298 298 299 299 296 292 288 286 286 287 287 286 286 286 286 284 281 278 276 274 274 274 276 276 275 274 272 270 269 269 270 270 270 269 268 267 266 265 263 262
335 336 337 338 341 344 345 346 343 341 339 338 336 335 335 335 336 338 339 334 322 315 311 313 310 305 299 293 291 289 289 288 288 289 290 291 290 290 291 292 292 292 291 290 287 283 278 275 273 273 273 274 275 275 274 272 269 267 266 266 266 267 268 268 268 268 268 268 269
339 340 341 343 346 348 349 347 343 339 337 334 331 331 331 329 329 330 330 323 314 310 308 307 304 302 300 294 289 288 287 285 286 289 293 295 296 296 296 296 295 293 291 290 289 285 281 275 273 271 271 272 273 274 274 272 269 267 265 264 264 265 267 268 269 270 271 272 272
342 342 343 345 348 348 346 342 338 335 331 327 325 324 323 321 322 322 320 314 309 306 304 300 297 299 300 299 295 292 291 292 292 293 294 295 296 296 296 294 293 291 289 288 287 286 283 280 276 273 270 270 271 271 271 270 269 267 266 264 264 265 266 267 269 270 271 272 271
343 342 344 347 347 345 340 336 332 328 324 320 317 316 314 314 315 313 310 305 301 299 298 296 293 293 295 296 294 292 291 293 293 292 291 291 291 291 291 290 289 288 286 285 283 282 281 280 278 276 273 271 270 270 269 269 269 268 267 266 266 266 266 266 267 267 267 267 267
342 343 344 345 341 337 333 329 325 321 315 310 308 308 308 308 307 306 305 302 297 293 292 293 292 290 289 288 289 289 289 288 289 289 288 288 288 288 288 287 287 286 285 283 281 280 279 279 278 277 275 273 272 271 270 269 269 269 268 267 267 266 265 265 264 263 262 262 263
342 342 339 336 331 327 323 319 314 308 304 301 302 304 304 304 304 304 303 299 295 292 289 288 289 289 289 288 289 289 288 285 286 287 287 288 288 287 286 286 286 286 285 283 282 281 280 280 278 277 275 273 272 272 271 270 269 268 267 267 266 265 264 263 262 261 261 260 261
339 335 329 322 319 314 309 304 300 298 297 297 299 300 302 303 304 302 299 296 295 293 289 286 286 287 289 290 290 289 287 285 285 285 286 287 287 286 285 285 286 287 288 286 285 283 281 279 277 275 273 272 271 270 269 269 268 267 266 265 264 263 262 261 261 261 261 260 260
329 322 315 311 307 302 299 296 295 295 296 297 300 302 304 306 304 301 298 296 297 295 291 287 286 285 286 286 286 286 286 287 286 284 284 285 285 285 285 286 288 290 290 289 287 284 281 278 275 272 269 268 267 265 264 263 264 265 265 265 264 263 263 262 262 262 262 262 261
316 311 307 303 301 300 299 298 298 299 302 305 308 309 309 309 306 304 303 302 301 297 294 290 288 286 284 282 281 282 285 290 291 290 288 286 286 287 288 290 290 289 288 288 285 282 279 277 273 270 268 267 266 264 263 262 263 265 266 267 267 266 265 265 265 265 264 264 263
310 307 303 302 303 303 303 303 307 310 312 313 313 313 313 312 311 310 309 307 304 301 298 295 292 289 285 283 281 281 284 290 294 295 294 292 290 290 290 291 290 287 285 285 287 288 287 284 281 278 276 275 275 273 271 269 268 269 270 271 270 270 268 267 267 267 267 268 267
308 306 307 308 309 308 309 312 314 315 315 314 314 315 316 315 314 314 313 312 308 305 302 299 296 293 290 288 286 286 288 290 293 295 295 296 294 293 292 292 290 288 287 288 293 296 297 297 295 292 287 282 280 277 274 271 270 270 270 270 270 271 271 271 271 272 273 275 275
310 312 313 313 313 314 315 314 314 313 314 315 317 318 318 317 316 315 314 313 310 308 305 303 300 298 297 295 296 297 297 295 294 293 294 294 295 294 293 292 291 290 290 293 298 300 301 301 300 297 293 286 280 277 275 273 271 270 268 267 268 269 272 275 277 279 281 282 279
317 318 317 315 317 317 315 313 314 316 318 319 320 319 317 316 316 316 315 312 310 309 307 305 301 301 301 301 301 301 300 299 297 293 291 289 290 291 291 291 291 290 292 296 300 302 303 303 301 299 297 291 285 281 279 278 276 273 270 268 268 269 271 274 278 281 282 279 274
320 318 318 319 321 318 316 316 319 320 320 320 318 315 314 315 315 315 314 312 312 312 311 308 304 303 304 304 302 300 298 297 296 293 290 287 286 287 288 289 289 291 295 299 302 304 304 303 302 300 298 295 291 286 283 280 279 278 275 271 271 272 274 278 279 278 276 271 268
317 317 320 322 321 319 319 321 321 319 317 315 314 314 315 316 315 315 314 315 315 314 312 309 308 308 307 305 302 300 298 296 293 292 290 289 289 288 288 290 290 293 297 302 304 305 304 303 301 300 298 298 296 294 290 286 286 285 283 281 278 277 278 279 277 275 273 271 270
315 317 319 321 320 320 320 319 317 315 313 313 315 315 316 316 316 316 316 315 313 310 307 305 307 306 304 301 301 301 300 297 294 293 292 292 292 292 293 294 294 296 299 302 304 305 305 303 302 300 299 300 300 299 295 291 288 286 285 283 280 279 279 281 283 284 284 284 282
313 316 318 320 320 319 317 314 313 312 313 314 316 316 316 316 315 314 312 311 307 306 305 304 304 302 300 299 300 300 298 298 297 296 294 293 294 295 296 297 296 296 298 302 304 305 305 304 303 302 302 304 305 305 301 295 290 287 284 283 283 284 288 292 293 292 290 288 287
312 316 318 320 318 315 313 312 312 312 313 314 315 314 314 312 309 308 306 305 304 305 306 308 308 308 307 308 306 304 302 300 299 298 298 298 298 298 298 298 296 296 298 302 305 306 306 305 305 305 307 309 309 308 304 297 293 291 289 289 289 289 289 289 288 287 286 285 286
313 316 318 318 315 313 311 311 311 312 313 314 313 312 311 310 309 309 309 307 306 306 307 310 312 313 312 312 310 308 305 303 301 301 301 301 301 299 299 298 296 297 300 304 306 307 307 307 308 309 311 313 313 312 309 302 297 295 294 292 288 284 280 278 278 280 282 283 285
313 315 316 315 313 311 310 311 311 313 314 314 312 311 311 311 312 312 312 311 310 308 309 310 311 309 308 306 306 305 304 304 304 304 303 303 301 300 299 298 296 299 302 305 307 308 309 310 312 313 314 316 316 316 312 306 301 297 293 287 281 276 273 274 276 278 281 283 284
311 314 314 313 312 311 311 311 312 314 314 314 313 312 312 311 311 310 310 311 313 313 312 312 310 308 306 304 303 303 303 305 305 304 304 303 302 301 300 298 296 299 302 306 308 310 312 313 314 315 315 317 317 314 308 302 297 291 285 279 274 273 274 276 277 279 281 282 282
308 310 312 311 311 311 311 312 313 314 315 314 314 314 314 313 310 307 307 311 315 316 315 314 313 312 310 309 307 306 306 305 305 305 305 305 304 302 300 299 296 299 302 306 309 312 314 315 315 315 315 316 316 311 305 299 293 287 281 275 275 279 281 282 281 281 281 281 279
305 307 308 309 310 310 311 312 313 314 314 313 312 313 313 312 310 309 310 316 319 319 318 316 315 314 312 311 309 308 306 305 305 305 305 305 304 302 300 298 296 298 302 307 311 313 315 316 314 314 314 316 315 310 303 298 294 289 285 282 285 287 289 287 285 282 281 278 278
303 305 306 308 309 310 310 312 313 313 312 311 310 311 311 310 310 311 316 323 322 319 317 316 314 312 311 311 309 308 307 306 306 305 304 303 302 300 298 296 296 298 303 308 311 313 314 314 312 312 313 315 314 309 302 299 296 294 293 292 293 293 293 290 286 282 279 276 280
302 303 304 306 307 308 310 311 310 309 309 309 310 311 311 311 311 315 319 323 319 315 313 312 311 310 310 312 312 310 309 307 306 305 303 301 300 300 301 300 300 302 305 308 311 312 312 312 310 311 313 314 313 308 301 298 296 296 297 300 300 298 294 289 284 280 277 274 282
300 301 304 305 306 308 309 309 308 306 306 308 310 311 311 312 314 317 319 319 315 311 309 307 307 307 309 314 313 311 309 307 306 304 302 301 300 303 306 306 305 304 305 307 309 309 310 310 310 312 313 313 313 309 303 299 297 299 303 308 306 300 292 284 280 279 278 277 285
299 303 307 307 307 308 308 308 306 306 307 308 308 308 311 315 316 317 317 316 313 311 309 308 308 308 310 313 312 309 306 305 304 303 303 303 303 305 307 307 304 302 302 303 305 307 308 310 311 313 313 311 313 312 309 302 300 303 309 313 307 297 288 282 282 284 286 287 289